Location: Bronschhofen
(47.4788°N, 9.0353°E)
Time: 19:35:26
(UTC+00:00)

Cosmos 1674 - Pass Details

Date: 20 May 2022
Orbit: 487 x 510 km, 82.5° (Epoch: 06 July)

Event Time Altitude Azimuth Distance (km) Brightness Sun altitude
Exits shadow 00:37:32 61° 256° (WSW) 567 2.6 -20.4°
Maximum altitude 00:37:48 64° 281° (W) 556 2.7 -20.4°
Drops below altitude 10° 00:41:31 10° 3° (N) 1,713 6.4 -20.2°
Sets 00:43:40 0° 7° (N) 2,607 7.7 -20.0°
